Change the Weather History Date:

Saturday, December 8, 2012

  Actual Average Record
Temperature  
Mean Temperature 61 °F 46 °F  
Max Temperature 68 °F 56 °F 82 °F (1922)
Min Temperature 54 °F 37 °F 16 °F (2006)
Degree Days  
Heating Degree Days 4 19  
Month to date heating degree days 21 144  
Since 1 July heating degree days 560 606  
Cooling Degree Days 0 0  
Month to date cooling degree days 5 0  
Year to date cooling degree days 2451 2186  
Growing Degree Days 12 (Base 50)    
Moisture  
Dew Point 60 °F    
Average Humidity 91    
Maximum Humidity 100    
Minimum Humidity 81    
Precipitation  
Precipitation 0.24 in 0.20 in 1.60 in (1926)
Month to date precipitation 0.77 1.63  
Year to date precipitation 37.02 48.65  
Sea Level Pressure  
Sea Level Pressure 29.92 in    
Wind  
Wind Speed 8 mph (South)    
Max Wind Speed 15 mph    
Max Gust Speed 18 mph    
Visibility 9 miles    
Events Rain , Thunderstorm    
T = Trace of Precipitation, MM = Missing Value Source: NWS Daily Summary

Daily Weather History Graph

Daily Weather History Graph

Search for Another Location

Airport or City:

Trip Planner

Search our weather history database for the weather conditions in past years. The results will help you decide how hot, cold, wet, or windy it might be!

Date:

Astronomy

Dec. 08, 2012 Rise Set
Actual Time 6:56 AM CST 4:56 PM CST
Civil Twilight 6:28 AM CST 5:23 PM CST
Nautical Twilight 5:57 AM CST 5:54 PM CST
Astronomical Twilight 5:27 AM CST 6:24 PM CST
Moon 1:33 AM CST (12/8) 1:15 PM CST (12/8)
Length of Visible Light 10h 54m
Length of Day
10h 00m
Waning Crescent, 28% of the Moon is Illuminated
Dec 8
Waning Crescent
Dec 13
New
Dec 19
First Quarter
Dec 28
Full
Jan 4
Last Quarter

Hourly Weather History & Observations

Time (CST) Temp. Dew Point Humidity Pressure Visibility Wind Dir Wind Speed Gust Speed Precip Events Conditions
12:53 AM 57.0 °F 55.0 °F 93% 29.91 in 10.0 mi South 5.8 mph - N/A   Overcast
1:53 AM 55.0 °F 53.1 °F 93% 29.91 in 10.0 mi South 5.8 mph - N/A   Partly Cloudy
2:53 AM 55.9 °F 54.0 °F 93% 29.92 in 10.0 mi South 4.6 mph - N/A   Scattered Clouds
3:53 AM 55.9 °F 53.1 °F 90% 29.92 in 10.0 mi SSE 5.8 mph - N/A   Clear
4:53 AM 57.2 °F 55.4 °F 94% 29.89 in 10.0 mi SSE 6.9 mph - N/A   Mostly Cloudy
5:53 AM 57.0 °F 55.0 °F 93% 29.92 in 10.0 mi SSE 8.1 mph - N/A   Overcast
6:53 AM 57.9 °F 54.0 °F 87% 29.93 in 10.0 mi South 6.9 mph - N/A   Partly Cloudy
7:53 AM 60.1 °F 57.0 °F 90% 29.94 in 9.0 mi South 10.4 mph - N/A   Partly Cloudy
8:33 AM 62.6 °F 57.2 °F 82% 29.92 in 10.0 mi South 10.4 mph - N/A Thunderstorm Thunderstorm
8:44 AM 62.6 °F 57.2 °F 82% 29.93 in 10.0 mi SSW 10.4 mph - N/A Thunderstorm Thunderstorm
8:53 AM 62.1 °F 57.9 °F 86% 29.97 in 2.5 mi West 8.1 mph - 0.04 in Rain , Thunderstorm Heavy Thunderstorms and Rain
9:01 AM 62.6 °F 59.0 °F 88% 29.95 in 1.0 mi West 10.4 mph - 0.09 in Rain , Thunderstorm Heavy Thunderstorms and Rain
9:15 AM 62.6 °F 60.8 °F 94% 29.95 in 3.0 mi WSW 6.9 mph - 0.15 in Rain , Thunderstorm Light Rain
9:53 AM 63.0 °F 61.0 °F 93% 29.97 in 9.0 mi SSW 6.9 mph - 0.18 in Rain Light Rain
10:18 AM 62.6 °F 60.8 °F 94% 29.94 in 7.0 mi SSW 10.4 mph - 0.01 in Rain Light Rain
10:34 AM 62.6 °F 60.8 °F 94% 29.94 in 10.0 mi SSW 11.5 mph - 0.01 in   Overcast
10:53 AM 64.0 °F 61.0 °F 90% 29.96 in 10.0 mi SSW 11.5 mph - 0.01 in   Overcast
11:02 AM 62.6 °F 60.8 °F 94% 29.94 in 10.0 mi SSW 11.5 mph - N/A   Overcast
11:29 AM 64.4 °F 62.6 °F 94% 29.92 in 10.0 mi SSW 11.5 mph - N/A   Overcast
11:46 AM 64.4 °F 62.6 °F 94% 29.92 in 10.0 mi SW 13.8 mph - N/A   Overcast
11:53 AM 64.9 °F 62.1 °F 90% 29.94 in 9.0 mi SW 13.8 mph - N/A   Overcast
12:20 PM 64.4 °F 62.6 °F 94% 29.90 in 2.5 mi SSW 11.5 mph - N/A   Overcast
12:31 PM 64.4 °F 62.6 °F 94% 29.90 in 7.0 mi SSW 11.5 mph - N/A   Overcast
12:53 PM 66.0 °F 63.0 °F 90% 29.91 in 10.0 mi SSW 10.4 mph - N/A   Overcast
1:53 PM 66.9 °F 63.0 °F 87% 29.90 in 10.0 mi South 10.4 mph - N/A   Overcast
2:53 PM 68.0 °F 63.0 °F 84% 29.90 in 10.0 mi South 6.9 mph - N/A   Overcast
3:00 PM 68.0 °F 62.6 °F 83% 29.88 in 10.0 mi South 6.9 mph - N/A   Overcast
3:38 PM 66.2 °F 62.6 °F 88% 29.88 in 10.0 mi South 8.1 mph - N/A   Overcast
3:53 PM 66.9 °F 63.0 °F 87% 29.90 in 10.0 mi South 6.9 mph - N/A   Overcast
4:12 PM 66.2 °F 62.6 °F 88% 29.88 in 10.0 mi South 5.8 mph - N/A   Overcast
4:21 PM 66.2 °F 64.4 °F 94% 29.88 in 10.0 mi South 6.9 mph - N/A   Overcast
4:53 PM 66.0 °F 63.0 °F 90% 29.91 in 10.0 mi South 3.5 mph - N/A   Overcast
5:53 PM 64.0 °F 63.0 °F 96% 29.92 in 10.0 mi SE 4.6 mph - N/A   Overcast
6:53 PM 64.9 °F 63.0 °F 93% 29.93 in 10.0 mi SSE 6.9 mph - N/A   Overcast
7:53 PM 64.9 °F 63.0 °F 93% 29.94 in 10.0 mi SSE 8.1 mph - N/A   Overcast
8:53 PM 64.0 °F 62.1 °F 93% 29.93 in 10.0 mi SSE 9.2 mph - 0.01 in   Partly Cloudy
9:53 PM 63.0 °F 62.1 °F 97% 29.93 in 10.0 mi SSE 8.1 mph - N/A   Mostly Cloudy
10:53 PM 63.0 °F 62.1 °F 97% 29.92 in 10.0 mi SSE 6.9 mph - N/A   Mostly Cloudy
11:53 PM 63.0 °F 61.0 °F 93% 29.91 in 10.0 mi South 10.4 mph - N/A   Mostly Cloudy